timestamp,gas_concentrations,,corrected_fluxes_and_quality_flags,,,,,,,,,,storage_terms,,,turbulence,,,footprint,,
ISOdate,CO2_1_1_1,H2O_1_1_1,Tau_1_1_1,QcTau_1_1_1,H_1_1_1,QcH_1_1_1,LE_1_1_1, QcLE_1_1_1,Fc_1_1_1, QcFc_1_1_1,E_1_1_1, QcE_1_1_1,Sa_1_1_1,Sw_1_1_1,Sc_1_1_1,ustar_1_1_1,MO_length_1_1_1,ZL_1_1_1,Fetchmax_1_1_1,Fetch70_1_1_1,Fetch90_1_1_1
yyyymmddHHMM,[µmol+1mol_a-1],[mmol+1mol_a-1],[kg+1m-1s-2],[#],[W+1m-2],[#],[W+1m-2],[#],[µmol+1s-1m-2],[#],[mmol+1s-1m-2],[#],[W+1m-2],[W+1m-2],[µmol+1s-1m-2],[m+1s-1],[m],[#],[m],[m],[m]
201310250030,344.03821344917537,5.7208674839474938,0.24943032361969214,0,-19.119205243744990,0,-9999.,-9999.,67.348780504831524,1,-9999.,-9999.,-9999.,-9999.,-9999.,0.45227119178363040,407.94508578169683,5.29483029771286029E-002,105.50717616734812,192.90076782186196,289.00050131932602
201310250100,400.07268412270980,5.6291932523800350,0.26876249839844474,0,-21.251700654315783,0,-9999.,-9999.,44.507393460779269,0,-9999.,-9999.,0.88444982824710439,968.77914956118855,45.966865867824758,0.46947903113951156,410.52904469555392,5.26150348656048011E-002,110.35507197490371,201.76426751513941,302.27963900096756
201310250130,408.41633108262738,5.4886434002292610,0.27139149257757383,0,-29.256566057274828,0,42.132314723466166,2,14.747783083177227,0,0.93422360530930448,2,-3.7874848713495828,-5.2035827944655138,6.8495732208516733,0.47158439788107370,302.25927762882975,7.14618263149709027E-002,112.25623946042336,205.24020802493951,307.48723128393891
201310250200,400.40696630761659,5.4382725323199033,0.22983240112895717,0,-30.468830276003342,0,39.337641870515753,0,1.3236526718773072,0,0.87212360534309186,0,-3.8303592598789651,-1.8666493221518672,-6.5803818476340581,0.43380053314604972,225.94302390911616,9.55993224587824986E-002,108.37840715216817,198.15029379426795,296.86524781486702
201310250230,388.02226614812014,5.3192106476100127,0.40567224437440152,0,-30.824554434614896,0,17.487244144114321,0,1.3458227758738437,0,0.38766557604313495,0,-1.9716408423659137,-4.4139907768767488,-10.178412082543554,0.57622427498561424,523.43229751964827,4.12660817881403200E-002,120.39861278603885,220.12706334094369,329.79045328752647
201310250300,388.27235354778901,5.3225947863147667,0.19771056017777319,0,-26.205840128043395,0,8.7072346840160719,0,1.0065634010096178,0,0.19301669346105718,0,-1.2372476675014838,0.12546488672516370,0.20553248644607960,0.40227407828854211,209.45346908349671,0.10312552995428956,107.41350092732549,196.38613747419910,294.22222017603258
201310250330,388.36220676741124,5.2771733914965520,0.17877225831055676,0,-16.520014076739987,0,8.6267679667058399,0,0.81537693727856109,0,0.19122161145650141,0,-1.5008876129704889,-1.6843379153582496,7.38569311983524601E-002,0.38248901457509010,285.58811815858485,7.56333986836444372E-002,106.88859266479120,195.42643775938257,292.78441512305261
201310250400,388.65479858951710,5.3006820549535121,0.16584503829157163,0,-17.928637766446965,0,5.2295399437345216,0,0.59516657739948031,0,0.11591341575662031,0,-1.0861249478088257,0.87209632500484158,0.24058520718611492,0.36833884155746327,235.04178517682899,9.18985532029961139E-002,105.99112194937868,193.78557505800461,290.32610379205613
201310250430,389.08309853811613,5.2727777647745206,0.21719603009571226,0,-25.466981256024724,0,4.0264604727266295,0,0.75342405418329816,0,8.92355749369960760E-002,0,-3.2442309600547179,-1.0358829520283988,0.35237274900685139,0.42140156525931355,247.78802661827137,8.71712822237201007E-002,106.58758411440343,194.87609812752044,291.95990606951210
201310250500,389.21942910699715,5.2439258705018492,0.27183560726188999,0,-41.468374150082987,0,-1.3024157979673530,2,0.91728551815420456,0,-2.88609440844710720E-002,2,-3.1346504692130930,-1.0719827843524035,0.11224515490771832,0.47126042305824045,212.86868524772552,0.10147100770065377,109.91459583243548,200.95893664404716,301.07310660557289
201310250530,389.54200174280732,5.2028512803272484,0.15351769049585401,0,-23.414966002514511,0,0.54762834577156927,0,1.1973948356129001,0,1.21317096172846861E-002,0,-7.2926875826075612,-1.5282070505295180,0.26587198011838459,0.35395519156778660,159.72820750963862,0.13522971513154039,97.191769221586952,177.69755186198884,266.22331342276567
201310250600,389.86382001695688,5.1047522170066095,0.10591275548010914,0,-22.040980552754629,0,-2.6287899366743561,1,0.98854714908193686,0,-5.82179917462426824E-002,1,-7.8848446254210387,-3.6546522213194539,0.26551755059098264,0.29384370626230971,97.068169923371670,0.22252402633171767,95.424615688723478,174.46663159920226,261.38280611835529
201310250630,382.37569905263859,5.0474379047604598,9.41451730691385824E-002,0,-23.564079447648187,0,30.146667913820050,2,15.772234772637360,1,0.66752459280836285,2,-4.2977152167072532,-2.1369652148519851,-6.1820878536017094,0.27694700879078826,76.013063323364108,0.28416168294799948,99.784302560207266,182.43752965108641,273.32466388787469
201310250700,388.99737109034220,5.0541270995939751,6.73026514529724423E-002,0,-14.747315831251154,0,-23.492702361284678,1,-3.2779881656572631,2,-0.52019970583024566,1,0.53712271186981475,0.24935858384265777,5.4658193012276701,0.23418099457109778,73.428298568150751,0.29416451723925580,97.682988094658967,178.59565662818866,267.56883801864865
201310250730,391.51801142845676,5.1136089466209462,9.53561260641690028E-002,0,-9.3218092058985977,0,2.2089159904685483,0,0.62927428721879641,0,4.89351011909793035E-002,0,11.927878775325413,2.2116216605700112,2.0762448235223854,0.27904530081337869,196.50082409950784,0.10992320311624638,98.841137670863802,180.71312342635341,270.74118913526917
201310250800,390.97366697796673,5.0869988060460862,0.15618640176362203,0,3.1264414666193407,1,11.702986319373931,0,0.92527065985457724,1,0.25932412209490513,0,6.1191954261082051,-0.98775484927702006,-0.44773600547998504,0.35737944036515840,-1230.3477828697155,-1.75560116421872546E-002,93.531708729042492,171.00579396519484,256.19784069542567
201310250830,391.84969174545097,5.1860700781696485,0.14103246507217854,0,24.283227706947464,0,20.205265839331076,0,1.0664726856207944,1,0.44793029779942600,0,11.616186916587854,3.6684191312235761,0.71910691531387316,0.33994700850005999,-136.31977760747714,-0.15845096272233972,95.749915573727051,175.06138353806583,262.27385290076597
201310250900,391.67237193916759,5.2557665578395643,0.32469620171102859,0,46.931238163160202,0,31.121368189163469,0,4.15482909650517485E-002,1,0.69014595721355121,0,7.9209244819979059,2.5760106641902638,-0.14533704596522334,0.51620833588525827,-246.92193251693806,-8.74770409409391381E-002,102.97474577094006,188.27067737997868,282.06378212444037
201310250930,390.70965895573465,5.3771913205816411,0.36072078398859492,0,27.191005593368104,0,28.723597296481476,0,0.40121921093949098,1,0.63730527447894991,0,13.111523446999326,4.4746520835199250,-0.78715004062875604,0.54476748227252281,-500.76876822456848,-4.31336803942084859E-002,95.409676386683103,174.43931779042643,261.34188505558149
201310251000,388.91204305056436,5.3858361590688073,0.43174130009748962,0,31.369734212481497,0,53.617892311109927,0,1.3480745347481378,2,1.1902790768625735,0,13.299659300823585,0.31758389485998617,-1.4660120847141136,0.59675782770421448,-570.36419461276444,-3.78705399182093158E-002,103.98509559661312,190.11791909585858,284.83128682634111
201310251030,387.85417737061584,5.3525197335563703,0.35007580920837567,0,39.630650066950054,0,63.451430271017806,0,-0.30878569533334566,0,1.4094603476843051,0,15.670812126674356,-1.2196806456207010,-0.86025995320372994,0.53812772911236828,-330.94680116109339,-6.52672874438386674E-002,92.639289140266484,169.37416633428268,253.75336518283706
201310251100,386.72879594868141,4.9770382370752992,0.66582894414990246,0,30.767963285670870,0,165.66030092424739,0,0.68248796062869999,1,3.6819916350937842,0,14.499326787491851,-13.699050030998405,-0.91256961578214479,0.74314099973143322,-1122.1188351014105,-1.92492981352085785E-002,103.00078502626327,188.31828544350404,282.13510767892637
201310251130,385.61738231578443,4.7192031326067134,0.57591504136486005,0,-5.6781783809115174,2,109.14143518344929,0,-8.92101431897034391E-002,1,2.4258098782585806,0,0.15743544199680709,-9.4023796457780406,-0.90082111198384895,0.69127301161565902,4892.2414016020457,4.41515416490419373E-003,97.572600129979648,178.39383222231930,267.26646828143441
201310251200,385.28298646962520,4.7918445802508520,0.37526070895562902,0,-17.601447987269246,0,85.234329955057632,0,-0.56797766032066421,1,1.8942265086075516,0,-2.8485083758142089,2.6482686038556196,-0.27092917464949573,0.55811909566543128,830.13456544553253,2.60198778596904927E-002,90.571454766666804,165.59350559739465,248.08924647239252
201310251230,385.41671604578062,4.8778724198832091,0.89455423392753464,0,-20.543898329299605,0,123.72457319944567,0,-0.89454544696782368,0,2.7497815448290206,0,1.4227717039499761,3.1328023039181860,0.10823399012779346,0.86218427629441541,2620.4793907387334,8.24276660077482778E-003,114.59372832987337,209.51388318213233,313.88997543498994
201310251300,385.43270037102081,4.7973967024361261,0.72845299188792578,0,-22.972278831034771,0,126.27990459684359,0,-1.92017402940296567E-002,2,2.8069557262151901,0,3.3745813990267601,-2.9254948771074378,1.29160616726742578E-002,0.77864788040825128,1724.8031546079453,1.25231681901171888E-002,104.88367894291628,191.76081604136002,287.29264582572239
201310251330,385.33370556451649,4.7155783773094901,0.92592761515029409,0,21.718665085987503,1,143.43663307371537,0,-1.5490848742532490,0,3.1895466166108011,0,9.5444611283309140,-2.9663131233777533,-7.98082321671886030E-002,0.87886544541516942,-2621.7734384864916,-8.23869815862858859E-003,111.61760935295001,204.07258850785217,305.73792447920869
201310251400,385.59375147341757,4.7408984257258302,0.66655610463818205,0,-8.7077877871856852,1,92.323143535873456,0,-1.9270037227999959,0,2.0530688533784707,0,1.3683931221145900,0.91670557988506196,0.20936703359303432,0.74617863830191911,3998.8730970119022,5.40152174774945378E-003,105.87739216035207,193.57764073140817,290.01458028021938
201310251430,385.81850506110385,4.8375558747262604,1.1063807398108152,0,-44.264312494385891,0,127.28561839853884,0,-0.69968562357961228,2,2.8306229889701631,0,0.55449672410084216,3.4950370856638848,0.18072814251053912,0.96195392739118979,1684.1267757971739,1.28256377788279856E-002,114.37187259440540,209.10826014043917,313.28227820433796
201310251500,385.53181622743489,4.9460960855697689,1.1713342737412071,0,-61.320446423652371,0,105.88603130521665,0,1.3134083695864036,0,2.3548289969118885,0,1.0207971422686943,3.9156939500419443,-0.23001150577291191,0.99092664730424240,1326.9116578224914,1.62784009565839216E-002,104.53110842645717,191.11620469067390,286.32690055882716
201310251530,385.09291674032147,4.9770315276323398,1.4218514723643074,0,-90.290038284653065,0,112.49710756594823,0,1.8203224713496304,0,2.5022752275853701,0,4.1305556997582844,1.1138941378388030,-0.35151704228690550,1.0927214750818062,1207.4613163382603,1.78887718452993803E-002,108.14055298265248,197.71542051269677,296.21372839478613
201310251600,384.84594049826251,4.9914927135739315,1.2282826188824192,0,-79.284388004344677,0,92.279232843606437,0,1.9684705968708847,0,2.0527630196731073,0,2.3228448640868589,0.51997659745866887,-0.19754675751087966,1.0162861273315933,1105.4885664368746,1.95388723644781374E-002,101.77366772894690,186.07472365502096,278.77384328929332
201310251630,384.94559147421154,5.0814407169537619,1.5677751669708595,0,-96.379414226553166,0,85.145959574552521,0,2.5518196877560904,0,1.8940800687487953,0,-3.10413656107942047E-002,3.2307061936920580,7.96199284462640738E-002,1.1488236960213374,1312.6103686806221,1.64557590853951323E-002,109.46506570448227,200.13705219986784,299.84177394123776
201310251700,385.37319010888433,5.1971074272696578,1.5931837352630798,0,-126.80432204476136,0,94.046946274735674,0,3.7677114706478996,0,2.0924239626132701,0,3.9828404109423521,4.1474708827360809,0.34112712817659879,1.1590017224448490,1023.7849798934362,2.10981802079654480E-002,107.79926436846478,197.09143607754092,295.27888600607139
201310251730,385.62804293697059,5.3868847140215861,1.4473382848716361,0,-134.87828262056701,0,69.153245164275205,0,3.1859124281761568,0,1.5390755631305542,0,8.0062548012502734,6.7907925068118287,0.20296121888174859,1.1056812879649502,835.41426376304935,2.58554359638351397E-002,105.53764625989746,192.95647686897976,289.08396362342597
201310251800,386.36739304544204,5.5588480170577332,1.2962593327296144,0,-134.29870724909847,0,28.888854253766482,0,8.2360985718160560,0,0.64313717882522470,0,7.0705092200001154,6.1448668385025407,0.58816629962241884,1.0469883194048044,712.40377404045773,3.03198842946799559E-002,108.56357578831339,198.48884111764892,297.37245339669118
201310251830,396.80775885997207,5.7789507290721778,0.79603701966142293,0,-123.16459933896556,0,38.593566919768342,1,-2.0715596212569385,1,0.85935143858940466,1,4.6330136881283135,7.8575167890017976,8.2991101550302790,0.82081961061343545,374.31092834239013,5.77060362508091812E-002,101.83434211281066,186.18565577982613,278.94003982673127
201310251900,386.26704579712248,5.9488792058671871,0.42116545292875818,0,-92.251661342745834,0,50.299555341496138,0,1.8248814222419352,0,1.1202136277207748,0,4.5272963344020276,6.0578763458891025,-8.3687565987200951,0.59742566940039543,192.62410997159273,0.11213549541220705,91.408323184013938,167.12356796979745,250.38155872012078
201310251930,386.68716579806852,6.1095273997661783,0.60117554597983203,0,-121.66011841692273,0,52.746028705668657,0,2.2182965336800073,0,1.1752870201926622,0,12.147918951505712,5.7097439362006730,0.33271188549975567,0.71469275073094340,249.95671849222998,8.64149606791683317E-002,96.003865187902946,175.52568442585471,262.96946023737286
201310252000,386.95810683855711,6.3155529055802306,0.80268431932632756,0,-143.91682383261571,0,44.792634119590772,0,1.9678685768587734,0,0.99869894128029879,0,15.238033647396801,7.2942409508199990,0.21387592322399002,0.82720280259929324,327.44119104295874,6.59660439518929831E-002,99.924664489768602,182.69415602446591,273.70913695864510
201310252030,380.76176490303635,6.5038332972195860,0.91446847614359128,0,-156.07070553055388,0,189.02237565574220,0,-0.77125651489537717,2,4.2171875391368090,0,15.619470868004392,6.6409657679853300,-4.8760844839952817,0.88433151606003302,368.76116993083201,5.85744968865661228E-002,97.169252902893675,177.65638485020602,266.16163773750327
201310252100,389.36317135285594,6.6572538764748321,0.84073737598308029,0,-121.02382108109408,0,-17.729795958074163,2,39.831664683646586,1,-0.39560344033049716,2,2.5819342041144666,5.4060731489993090,6.7627618190097385,0.84832868381985904,419.66989049624493,5.14690247957954733E-002,102.00336228173452,186.49467855483698,279.40301225501992
201310252130,396.56250298820208,6.8132803783294449,0.86527275744772925,0,-97.365064350499509,0,-178.93085626759654,1,29.798852600139153,0,-3.9929979889579559,1,3.1829980314757118,5.4928640215725082,5.6559623166152901,0.86098082744877380,545.23949840559078,3.96156185734223357E-002,102.65549498132404,187.68698511674356,281.18930475145788
201310252200,399.42335816110096,7.0021549675354962,1.1117969433601480,0,-129.54240384927084,0,31.160626869898504,0,36.769775341149860,1,0.69554248704035004,0,5.7268415305410656,6.6409466257601295,2.2452763802359610,0.97648471266745562,597.82432748338772,3.61310154287761420E-002,109.10508434707610,199.47889146836400,298.85572923285713
201310252230,424.60891128319651,7.7035156054161602,0.55079023323696352,0,-55.091957369963374,0,-9999.,-9999.,-137.89518136905457,0,-9999.,-9999.,-29.700483061092893,-7085.5209474167686,19.855285791941615,0.68584853923814848,487.05814961336159,4.43478874486477603E-002,101.54751062885525,185.66123634694580,278.15436395454412
201310252300,403.32089232222694,7.6738208539657737,0.52840427009223023,0,-128.17206786510334,0,-31.369601958043038,1,-1.3343135845925618,0,-0.69963082126730891,1,9.8263271227871183,-1.0477655157987136,-16.752498203668431,0.67236635823228363,197.21060598715465,0.10952757784947388,97.239895422752838,177.78554190678469,266.35513854375534
201310252330,393.12229178039235,7.4951490104116436,0.79079347231819286,0,-109.91604332538631,0,93.064478861961504,0,-16.040268612408639,2,2.0754876767129398,0,-1.3158408838345756,-6.3076037014419519,-8.0294365736908642,0.82231755523475958,420.75473341918268,5.13363208643471264E-002,112.41070768864101,205.52262521123598,307.91034369216038
201310260000,389.40030969025293,7.4675820732430100,0.33375680889816767,0,-40.600109191177076,0,15.970260905008553,0,0.55408107922471372,0,0.35597119116169279,0,-12.983075557902920,-0.97607145882713886,-2.9374482012695395,0.53357453842744273,311.27530599005087,6.93919484917007584E-002,101.87365662574673,186.25753524819405,279.04772836850049
